Location: Unspecified
(0.0000°N, 0.0000°E)
Time: 00:19:36
(UTC+00:00)

QIANFAN-31 - Pass Details

Date: 13 March 2026
Orbit: 1037 x 1049 km, 89.0° (Epoch: 14 April)

Event Time Altitude Azimuth Distance (km) Brightness Sun altitude
Rises 04:41:35 0° 16° (NNE) 3,779 ? -22.0°
Reaches altitude 10° 04:44:15 10° 23° (NNE) 2,829 ? -21.3°
Maximum altitude 04:50:20 44° 93° (E) 1,395 ? -19.8°
Drops below altitude 10° 04:56:28 10° 164° (SSE) 2,845 ? -18.2°
Sets 04:59:07 0° 170° (S) 3,802 ? -17.6°
